Stations météo

Publicité
Le Talut, France (7207): Température de l'air & dewpoint: 19.09.2020 06:00:00 - 25.09.2020 06:00:00 (CEST)Le Talut, France (7207): Vitesse du vent & gusts: 19.09.2020 06:00:00 - 25.09.2020 06:00:00 (CEST)Le Talut, France (7207): Direction du vent: 19.09.2020 06:00:00 - 25.09.2020 06:00:00 (CEST)Le Talut, France (7207): reduced air pressure: 19.09.2020 06:00:00 - 25.09.2020 06:00:00 (CEST)Le Talut, France (7207): visibility: 19.09.2020 06:00:00 - 25.09.2020 06:00:00 (CEST)Le Talut, France (7207): Quantités de précipitations: 19.09.2020 06:00:00 - 25.09.2020 06:00:00 (CEST)
Date & Time tt [°C] td [°C] ff [km/h] ff [knt] fx [km/h] fx [knt] dd ppp [hPa] vv [km] rr [mm]
25.09.2020 06:00:00 12,9 - 48 26 88 48 WNW - - 0,0
25.09.2020 05:00:00 13,6 - 45 24 89 48 WNW - - 0,0
25.09.2020 04:00:00 13,5 - 40 22 78 42 WNW - - 0,2
25.09.2020 03:00:00 13,3 - 37 20 84 45 WNW - - 0,0
25.09.2020 02:00:00 13,7 - 44 24 85 46 W - - 0,2
25.09.2020 01:00:00 11,4 - 43 23 106 57 WNW - - 2,4
25.09.2020 00:00:00 13,6 - 52 28 96 52 W - - 0,8
24.09.2020 23:00:00 11,0 - 64 34 110 60 W - - 2,6
24.09.2020 22:00:00 14,1 - 59 32 101 54 W - - 0,0
24.09.2020 21:00:00 14,3 - 61 33 103 56 W - - 0,0
24.09.2020 20:00:00 13,9 - 55 30 85 46 W - - 0,4
24.09.2020 19:00:00 13,7 - 49 27 83 45 W - - 0,0
24.09.2020 18:00:00 13,5 - 38 21 82 45 WNW - - 0,2
24.09.2020 17:00:00 14,4 - 53 29 88 48 W - 8 0,0
24.09.2020 16:00:00 13,9 - 47 26 80 43 WSW - - 0,2
24.09.2020 15:00:00 13,0 - 35 19 109 59 W - - 1,6
24.09.2020 14:00:00 14,6 - 48 26 85 46 WSW - 8 1,0
24.09.2020 13:00:00 15,6 - 42 23 67 36 SW - - 0,2
24.09.2020 12:00:00 16,6 - 40 22 66 35 WSW - - 0,0
24.09.2020 11:00:00 15,6 - 37 20 54 29 W - - 0,2
24.09.2020 10:00:00 15,2 - 34 19 59 32 W - - 1,0
24.09.2020 09:00:00 15,5 - 35 19 59 32 WSW - - 0,0
24.09.2020 08:00:00 15,4 - 36 20 83 45 W - - 0,0
24.09.2020 07:00:00 15,4 - 45 24 88 48 WSW - - 1,4
24.09.2020 06:00:00 16,9 - 47 26 76 41 SW - - 0,0
24.09.2020 05:00:00 16,3 - 41 22 76 41 SW - - 0,0
24.09.2020 04:00:00 16,5 - 35 19 61 33 SW - - 0,0
24.09.2020 03:00:00 16,1 - 29 16 60 33 SW - - 0,0
24.09.2020 02:00:00 16,1 - 31 17 56 30 WSW - - 0,0
24.09.2020 01:00:00 16,0 - 34 19 50 27 WSW - - 0,0
24.09.2020 00:00:00 15,9 - 29 16 46 25 W - - 0,0
23.09.2020 23:00:00 15,9 - 28 15 51 28 W - - 0,0
23.09.2020 22:00:00 15,7 - 28 15 57 31 W - - 0,0
23.09.2020 21:00:00 15,9 - 34 18 66 36 W - - 0,0
23.09.2020 20:00:00 16,3 - 34 19 65 35 W - 16 0,0
23.09.2020 19:00:00 17,3 - 37 20 65 35 W - - 0,2
23.09.2020 18:00:00 17,0 - 25 13 49 26 W - - 0,0
23.09.2020 17:00:00 17,1 - 23 12 44 24 W - - 0,0
23.09.2020 16:00:00 18,0 - 23 12 55 30 WNW - - 0,0
23.09.2020 15:00:00 19,1 - 22 12 36 19 WSW - - 0,0
23.09.2020 14:00:00 18,8 - 20 11 34 18 WSW - - 0,0
23.09.2020 13:00:00 17,9 - 22 12 33 18 SW - - 0,0
23.09.2020 12:00:00 17,7 - 16 8 34 19 SW - - 0,0
23.09.2020 11:00:00 18,3 - 19 11 46 25 W - 16 0,0
23.09.2020 10:00:00 18,8 - 28 15 51 28 SW - - 0,0
23.09.2020 09:00:00 18,7 - 32 17 51 27 SW - - 0,0
23.09.2020 08:00:00 18,6 - 29 15 52 28 SSW - - 0,0
23.09.2020 07:00:00 18,2 - 34 19 46 25 SSW - - 0,0
23.09.2020 06:00:00 18,1 - 23 12 42 23 SSW - - 0,0
23.09.2020 05:00:00 17,7 - 16 9 34 18 SSW - - 0,0
23.09.2020 04:00:00 17,7 - 20 11 37 20 SW - - 0,2
23.09.2020 03:00:00 18,1 - 19 11 37 20 WSW - - 0,0
23.09.2020 02:00:00 18,1 - 24 13 40 22 WSW - - 0,0
23.09.2020 01:00:00 18,1 - 27 15 48 26 WSW - - 0,0
23.09.2020 00:00:00 18,2 - 32 17 48 26 WSW - - 0,0
22.09.2020 23:00:00 18,5 - 31 17 47 25 WSW - - 0,0
22.09.2020 22:00:00 18,8 - 24 13 40 22 WSW - - 0,0
22.09.2020 21:00:00 18,2 - 23 12 42 23 SW - - 0,0
22.09.2020 20:00:00 19,0 - 25 13 40 22 SW - 16 0,0
22.09.2020 19:00:00 19,3 - 21 11 33 18 SW - - 0,0
22.09.2020 18:00:00 19,7 - 20 11 31 17 SW - - 0,0
22.09.2020 17:00:00 19,7 - 16 9 30 16 WSW - - 0,0
22.09.2020 16:00:00 19,8 - 20 11 26 14 SW - - 0,0
22.09.2020 15:00:00 20,0 - 16 9 24 13 SW - - 0,0
22.09.2020 14:00:00 19,4 - 17 9 26 14 WSW - - 0,0
22.09.2020 13:00:00 19,0 - 16 9 24 13 WSW - - 0,0
22.09.2020 12:00:00 18,7 - 11 6 23 12 SW - - 0,0
22.09.2020 11:00:00 18,4 - 11 6 21 11 SW - 20 0,0
22.09.2020 10:00:00 18,1 - 12 6 21 11 WSW - - 0,0
22.09.2020 09:00:00 17,8 - 9 5 17 9 SW - - 0,0
22.09.2020 08:00:00 17,3 - 10 5 16 9 WSW - - 0,0
22.09.2020 07:00:00 15,9 - 0 0 5 3 N - - 0,0
22.09.2020 06:00:00 15,6 - 4 2 7 4 NNW - - 0,0
22.09.2020 05:00:00 16,0 - 6 4 13 7 N - - 0,0
22.09.2020 04:00:00 17,3 - 9 5 23 13 WNW - - 0,0
22.09.2020 03:00:00 17,4 - 16 9 29 16 W - - 0,0
22.09.2020 02:00:00 17,4 - 14 8 34 18 W - - 0,0
22.09.2020 01:00:00 17,4 - 16 8 32 17 W - - 0,0
22.09.2020 00:00:00 17,4 - 16 9 27 15 W - - 0,0
21.09.2020 23:00:00 17,4 - 11 6 26 14 WNW - - 0,0
21.09.2020 22:00:00 17,4 - 12 7 29 16 WNW - - 0,0
21.09.2020 21:00:00 17,3 - 15 8 30 16 W - - 0,0
21.09.2020 20:00:00 17,2 - 16 9 29 15 W - 9 0,0
21.09.2020 19:00:00 17,2 - 12 6 28 15 W - - 0,0
21.09.2020 18:00:00 17,4 - 13 7 24 13 W - - 0,0
21.09.2020 17:00:00 17,4 - 13 7 23 13 W - - 0,0
21.09.2020 16:00:00 17,5 - 16 8 24 13 W - - 0,0
21.09.2020 15:00:00 17,9 - 14 8 23 13 W - - 0,0
21.09.2020 14:00:00 17,6 4,5 13 7 26 14 W 1017,8 - 0,0
21.09.2020 13:00:00 17,7 5,3 17 9 28 15 W 1017,9 - 0,2
21.09.2020 12:00:00 17,9 5,1 5 3 10 5 NW 1017,8 - 0,0
21.09.2020 11:00:00 17,9 5,1 5 3 9 5 NNW 1017,6 2,0 0,2
21.09.2020 10:00:00 17,8 5,4 0 0 10 5 N 1017,1 - 0,0
21.09.2020 09:00:00 17,7 5,6 7 4 14 7 N 1016,9 - 0,2
21.09.2020 08:00:00 17,6 5,8 7 4 10 5 N 1016,6 - 0,0
21.09.2020 07:00:00 17,7 5,9 2 1 9 5 W 1016,3 2,0 0,0
21.09.2020 06:00:00 17,5 6,4 5 3 9 5 WNW 1016,3 - 0,2
21.09.2020 05:00:00 17,7 6,5 6 3 9 5 WSW 1016,4 - 0,8
21.09.2020 04:00:00 17,7 6,8 3 1 9 5 SW 1016,5 - 0,0
21.09.2020 03:00:00 17,6 7,0 7 4 14 8 NE 1016,7 - 0,0
21.09.2020 02:00:00 17,7 7,4 9 5 16 9 N 1016,4 - 0,0
21.09.2020 01:00:00 18,0 7,7 12 6 18 10 N 1016,5 - 0,0
21.09.2020 00:00:00 18,0 8,3 10 5 13 7 N 1016,6 - -
20.09.2020 23:00:00 18,8 8,7 10 6 17 9 NNW 1016,8 - 0,0
20.09.2020 22:00:00 18,7 9,5 13 7 18 10 NNW 1016,9 - 0,0
20.09.2020 21:00:00 18,7 10,5 10 6 16 9 NW 1016,3 - 0,0
20.09.2020 20:00:00 19,1 11,6 8 4 21 12 W 1016,0 - 0,0
20.09.2020 19:00:00 19,1 12,1 11 6 19 10 WNW 1015,6 - 0,0
20.09.2020 18:00:00 20,4 12,4 10 6 19 10 W 1015,4 - 0,0
20.09.2020 17:00:00 20,4 12,4 9 5 17 9 W 1015,4 8 0,0
20.09.2020 16:00:00 20,5 11,4 5 3 12 6 N 1015,4 - 0,0
20.09.2020 15:00:00 19,8 11,0 5 3 9 5 SSW 1015,8 - 0,0
20.09.2020 14:00:00 19,7 10,7 6 3 10 6 SSE 1015,7 8 0,0
20.09.2020 13:00:00 19,8 10,2 6 3 11 6 S 1015,9 - 0,0
20.09.2020 12:00:00 19,6 11,6 5 3 21 12 NE 1015,9 - 0,0
20.09.2020 11:00:00 18,4 11,7 9 5 18 10 NNE 1015,5 5 0,0
20.09.2020 10:00:00 17,7 11,5 13 7 18 10 NNE 1015,2 - 0,0
20.09.2020 09:00:00 17,5 11,5 8 4 13 7 N 1014,8 - 0,2
20.09.2020 08:00:00 17,1 11,4 7 4 14 8 NW 1014,3 4,0 0,0
20.09.2020 07:00:00 17,5 11,5 11 6 19 10 NNE 1014,0 - 0,0
20.09.2020 06:00:00 17,8 11,8 10 5 22 12 ENE 1014,0 - 0,0
20.09.2020 05:00:00 18,1 12,1 15 8 22 12 N 1013,5 - 1,0
20.09.2020 04:00:00 18,4 12,2 14 7 21 11 NNE 1013,6 - 0,4
20.09.2020 03:00:00 18,4 12,2 14 8 26 14 N 1013,7 - 0,0
20.09.2020 02:00:00 18,2 12,0 18 10 27 15 N 1013,5 - 0,0
20.09.2020 01:00:00 18,2 12,0 17 9 23 12 N 1013,5 - 0,0
20.09.2020 00:00:00 18,2 12,2 13 7 19 10 NNW 1013,6 - 0,0
19.09.2020 23:00:00 18,1 12,3 13 7 20 11 NNW 1013,5 - 0,0
19.09.2020 22:00:00 18,0 12,2 13 7 19 10 NNW 1013,3 - 0,0
19.09.2020 21:00:00 18,1 12,5 10 6 19 10 NNW 1012,7 - 0,0
19.09.2020 20:00:00 19,1 12,8 9 5 11 6 NNW 1012,2 - 0,0
19.09.2020 19:00:00 19,5 12,7 6 3 13 7 N 1012,1 - 0,0
19.09.2020 18:00:00 19,2 12,9 6 3 12 6 N 1011,6 - 0,0
19.09.2020 17:00:00 19,2 13,6 5 3 13 7 N 1011,4 15 0,0
19.09.2020 16:00:00 19,3 13,9 10 5 16 9 NNE 1011,9 - 1,2
19.09.2020 15:00:00 18,8 13,2 9 5 26 14 NE 1012,0 - 0,8
19.09.2020 14:00:00 19,3 13,9 16 9 29 16 NNE 1012,6 - 0,2
19.09.2020 13:00:00 19,2 14,2 10 5 14 7 N 1012,6 - 1,8
19.09.2020 12:00:00 19,2 14,2 4 2 12 6 E 1012,7 - 0,6
19.09.2020 11:00:00 19,1 14,4 5 3 21 11 E 1012,6 7 0,0
19.09.2020 10:00:00 18,8 14,5 15 8 25 14 E 1012,2 - 0,0
19.09.2020 09:00:00 18,9 14,2 14 7 21 11 E 1011,8 - 0,0
19.09.2020 08:00:00 19,3 13,5 8 4 19 11 E 1011,6 15 0,0
19.09.2020 07:00:00 18,5 13,8 13 7 25 14 ENE 1011,4 - 0,0
19.09.2020 06:00:00 18,6 13,9 16 9 22 12 NE 1011,5 - 0,0

tt = Température de l'air
td = dewpoint
ff = Vitesse du vent
fx = gusts
dd = Direction du vent
ppp = reduced air pressure
vv = visibility
rr = Quantités de précipitations

stations d'obs. à proximité